| time (UTC) | temp F | wind direction | speed MPH | gust MPH | rain 1hr in | rain 24hr in | rain mn in | humidity % | barometer mb |
| 20260507114202 | 46 | 31 | 0.0 | 0.0 | 0.00 | 0.25 | 0.03 | 78 | 1006.2 |
| 20260507113656 | 46 | 31 | 0.0 | 0.0 | 0.00 | 0.25 | 0.03 | 78 | 1006.3 |
| 20260507113150 | 46 | 31 | 0.0 | 0.0 | 0.00 | 0.25 | 0.03 | 79 | 1006.2 |
| 20260507112644 | 45 | 31 | 0.0 | 0.0 | 0.00 | 0.25 | 0.03 | 79 | 1006.1 |
| 20260507112138 | 45 | 31 | 0.0 | 0.0 | 0.00 | 0.25 | 0.03 | 79 | 1006.1 |
| 20260507111632 | 45 | 31 | 0.0 | 0.0 | 0.00 | 0.25 | 0.03 | 79 | 1006.3 |
| 20260507111126 | 45 | 31 | 0.0 | 0.0 | 0.00 | 0.25 | 0.03 | 79 | 1006.4 |
| 20260507110838 | 44 | 31 | 0.0 | 0.0 | 0.00 | 0.25 | 0.03 | 79 | 1006.5 |
| 20260507110114 | 44 | 31 | 0.0 | 0.0 | 0.00 | 0.25 | 0.03 | 79 | 1006.6 |
| 20260507105608 | 44 | 31 | 0.0 | 0.0 | 0.00 | 0.25 | 0.03 | 79 | 1006.4 |
| 20260507105101 | 45 | 31 | 0.0 | 0.0 | 0.00 | 0.25 | 0.03 | 79 | 1006.3 |
| 20260507104816 | 45 | 31 | 0.0 | 0.0 | 0.00 | 0.25 | 0.03 | 79 | 1006.3 |
| 20260507104050 | 45 | 31 | 0.0 | 0.0 | 0.00 | 0.25 | 0.03 | 79 | 1006.6 |
| 20260507103544 | 45 | 31 | 0.0 | 0.0 | 0.00 | 0.25 | 0.03 | 79 | 1006.6 |
| 20260507103038 | 45 | 31 | 0.0 | 0.0 | 0.00 | 0.25 | 0.03 | 79 | 1006.5 |
| 20260507102532 | 45 | 31 | 0.0 | 0.0 | 0.00 | 0.25 | 0.03 | 79 | 1006.5 |
| 20260507102026 | 45 | 31 | 0.0 | 0.0 | 0.00 | 0.25 | 0.03 | 79 | 1006.5 |
| 20260507101743 | 44 | 31 | 0.0 | 0.0 | 0.00 | 0.25 | 0.03 | 79 | 1006.8 |
| 20260507101013 | 44 | 31 | 0.0 | 0.0 | 0.00 | 0.25 | 0.03 | 79 | 1006.5 |
| 20260507100508 | 45 | 31 | 0.0 | 0.0 | 0.00 | 0.25 | 0.03 | 78 | 1006.7 |
| 20260507100003 | 45 | 31 | 0.0 | 0.0 | 0.00 | 0.25 | 0.03 | 78 | 1006.6 |
| 20260507095456 | 45 | 31 | 0.0 | 0.0 | 0.00 | 0.25 | 0.03 | 78 | 1006.3 |
| 20260507094950 | 45 | 31 | 0.0 | 0.0 | 0.00 | 0.25 | 0.03 | 78 | 1006.7 |
| 20260507094444 | 45 | 31 | 0.0 | 0.0 | 0.00 | 0.25 | 0.03 | 78 | 1006.3 |
| 20260507093938 | 45 | 31 | 0.0 | 0.0 | 0.00 | 0.25 | 0.03 | 78 | 1006.3 |
| 20260507093432 | 45 | 31 | 0.0 | 0.0 | 0.00 | 0.25 | 0.03 | 78 | 1006.1 |
| 20260507093148 | 45 | 31 | 0.0 | 0.0 | 0.00 | 0.25 | 0.03 | 78 | 1006.0 |
| 20260507092420 | 45 | 31 | 0.0 | 0.0 | 0.00 | 0.25 | 0.03 | 77 | 1005.8 |
| 20260507091915 | 45 | 31 | 0.0 | 0.0 | 0.00 | 0.25 | 0.03 | 77 | 1005.6 |
| 20260507091408 | 45 | 31 | 0.0 | 0.0 | 0.00 | 0.25 | 0.03 | 77 | 1006.0 |
| 20260507091122 | 46 | 31 | 0.0 | 0.0 | 0.00 | 0.25 | 0.03 | 77 | 1005.6 |
| 20260507090618 | 46 | 31 | 0.0 | 0.0 | 0.00 | 0.25 | 0.03 | 77 | 1006.0 |
| 20260507090112 | 46 | 31 | 0.0 | 0.0 | 0.00 | 0.25 | 0.03 | 76 | 1005.8 |
| 20260507085344 | 46 | 31 | 0.0 | 0.0 | 0.00 | 0.25 | 0.03 | 76 | 1006.1 |
| 20260507084838 | 46 | 31 | 0.0 | 0.0 | 0.00 | 0.25 | 0.03 | 76 | 1006.1 |
| 20260507084553 | 46 | 31 | 0.0 | 0.0 | 0.00 | 0.25 | 0.03 | 76 | 1005.9 |
| 20260507083826 | 46 | 31 | 0.0 | 0.0 | 0.00 | 0.25 | 0.03 | 76 | 1006.1 |
| 20260507083320 | 46 | 31 | 0.0 | 0.0 | 0.00 | 0.25 | 0.03 | 76 | 1006.4 |
| 20260507082814 | 46 | 31 | 0.0 | 0.0 | 0.00 | 0.25 | 0.03 | 76 | 1006.2 |
| 20260507082308 | 46 | 31 | 0.0 | 1.0 | 0.00 | 0.25 | 0.03 | 77 | 1006.2 |
| 20260507082024 | 46 | 31 | 0.0 | 2.0 | 0.00 | 0.25 | 0.03 | 77 | 1005.9 |
| 20260507081256 | 47 | 31 | 0.0 | 2.0 | 0.00 | 0.25 | 0.03 | 76 | 1005.9 |
| 20260507080750 | 47 | 31 | 0.0 | 2.0 | 0.00 | 0.25 | 0.03 | 77 | 1005.6 |
| 20260507080244 | 47 | 108 | 0.0 | 2.0 | 0.00 | 0.25 | 0.03 | 76 | 1006.1 |
| 20260507075738 | 47 | 140 | 0.0 | 2.0 | 0.00 | 0.25 | 0.03 | 77 | 1005.9 |
| 20260507075232 | 47 | 223 | 0.0 | 3.0 | 0.00 | 0.25 | 0.03 | 77 | 1005.7 |
| 20260507074726 | 47 | 223 | 1.0 | 3.0 | 0.00 | 0.25 | 0.03 | 77 | 1005.6 |
| 20260507074220 | 47 | 311 | 1.0 | 4.0 | 0.00 | 0.25 | 0.03 | 77 | 1005.5 |
| 20260507073714 | 47 | 306 | 1.0 | 4.0 | 0.00 | 0.25 | 0.03 | 77 | 1005.8 |
| 20260507073208 | 47 | 240 | 1.0 | 4.0 | 0.00 | 0.25 | 0.03 | 77 | 1005.5 |
| 20260507072703 | 48 | 347 | 1.0 | 3.0 | 0.00 | 0.25 | 0.03 | 77 | 1005.6 |
| 20260507072156 | 48 | 15 | 1.0 | 3.0 | 0.00 | 0.25 | 0.03 | 78 | 1005.6 |
| 20260507071650 | 49 | 129 | 0.0 | 3.0 | 0.00 | 0.25 | 0.03 | 79 | 1005.5 |
| 20260507071144 | 49 | 5 | 0.0 | 1.0 | 0.00 | 0.25 | 0.03 | 79 | 1005.6 |
| 20260507070638 | 49 | 5 | 0.0 | 0.0 | 0.00 | 0.25 | 0.03 | 79 | 1005.6 |
| 20260507070132 | 49 | 5 | 0.0 | 0.0 | 0.00 | 0.25 | 0.03 | 79 | 1005.4 |
| 20260507065627 | 49 | 5 | 0.0 | 1.0 | 0.00 | 0.25 | 0.03 | 79 | 1005.5 |
| 20260507065120 | 49 | 5 | 0.0 | 1.0 | 0.00 | 0.25 | 0.03 | 79 | 1005.2 |
| 20260507064614 | 49 | 5 | 0.0 | 0.0 | 0.00 | 0.25 | 0.03 | 79 | 1005.3 |
| 20260507064108 | 49 | 5 | 0.0 | 0.0 | 0.00 | 0.25 | 0.03 | 79 | 1005.2 |
| 20260507063602 | 49 | 5 | 0.0 | 0.0 | 0.00 | 0.25 | 0.03 | 79 | 1005.2 |
| 20260507063056 | 49 | 5 | 0.0 | 0.0 | 0.00 | 0.25 | 0.03 | 79 | 1005.1 |
| 20260507062550 | 49 | 5 | 0.0 | 0.0 | 0.00 | 0.25 | 0.03 | 79 | 1004.9 |
| 20260507062310 | 49 | 5 | 0.0 | 0.0 | 0.00 | 0.25 | 0.03 | 79 | 1004.7 |
| 20260507061538 | 49 | 5 | 0.0 | 0.0 | 0.01 | 0.25 | 0.03 | 79 | 1004.9 |
| 20260507061256 | 49 | 5 | 0.0 | 0.0 | 0.01 | 0.25 | 0.03 | 79 | 1004.9 |
| 20260507060753 | 49 | 5 | 0.0 | 0.0 | 0.01 | 0.25 | 0.03 | 79 | 1005.0 |
| 20260507060026 | 50 | 5 | 0.0 | 1.0 | 0.01 | 0.25 | 0.03 | 79 | 1004.8 |
| 20260507055526 | 50 | 5 | 0.0 | 1.0 | 0.01 | 0.25 | 0.03 | 79 | 1004.8 |
| 20260507055025 | 50 | 5 | 0.0 | 1.0 | 0.01 | 0.25 | 0.03 | 79 | 1004.7 |
| 20260507054525 | 50 | 5 | 0.0 | 0.0 | 0.01 | 0.25 | 0.03 | 79 | 1004.7 |
| 20260507054026 | 50 | 5 | 0.0 | 0.0 | 0.01 | 0.25 | 0.03 | 79 | 1004.7 |
| 20260507053525 | 50 | 5 | 0.0 | 1.0 | 0.01 | 0.25 | 0.03 | 78 | 1004.7 |
| 20260507053024 | 50 | 5 | 0.0 | 1.0 | 0.01 | 0.25 | 0.03 | 78 | 1004.7 |
| 20260507052526 | 51 | 5 | 0.0 | 1.0 | 0.01 | 0.25 | 0.03 | 78 | 1004.6 |
| 20260507052252 | 51 | 5 | 0.0 | 2.0 | 0.01 | 0.25 | 0.03 | 78 | 1004.7 |
| 20260507051522 | 51 | 5 | 0.0 | 2.0 | 0.00 | 0.24 | 0.02 | 78 | 1004.7 |
| 20260507051023 | 51 | 339 | 0.0 | 0.0 | 0.01 | 0.24 | 0.02 | 78 | 1004.7 |
| 20260507050523 | 52 | 72 | 0.0 | 0.0 | 0.01 | 0.24 | 0.02 | 79 | 1004.7 |
| 20260507050024 | 52 | 322 | 0.0 | 0.0 | 0.02 | 0.24 | 0.02 | 79 | 1004.6 |
| 20260507045524 | 52 | 103 | 0.0 | 0.0 | 0.03 | 0.24 | 0.02 | 79 | 1004.5 |
| 20260507045024 | 53 | 105 | 0.0 | 0.0 | 0.05 | 0.24 | 0.02 | 78 | 1004.5 |
| 20260507044524 | 53 | 92 | 0.0 | 2.0 | 0.05 | 0.24 | 0.02 | 78 | 1004.5 |
| 20260507044024 | 53 | 48 | 1.0 | 2.0 | 0.05 | 0.24 | 0.02 | 78 | 1004.5 |
| 20260507043524 | 54 | 47 | 0.0 | 3.0 | 0.05 | 0.24 | 0.02 | 78 | 1004.5 |
| 20260507043248 | 54 | 333 | 0.0 | 3.0 | 0.05 | 0.24 | 0.02 | 78 | 1004.4 |
| 20260507042744 | 55 | 240 | 1.0 | 4.0 | 0.05 | 0.24 | 0.02 | 78 | 1004.4 |
| 20260507042022 | 56 | 240 | 1.0 | 4.0 | 0.05 | 0.24 | 0.02 | 79 | 1004.4 |
| 20260507041745 | 56 | 244 | 0.0 | 2.0 | 0.05 | 0.24 | 0.02 | 80 | 1004.3 |
| 20260507041021 | 56 | 244 | 0.0 | 1.0 | 0.04 | 0.23 | 0.01 | 79 | 1004.1 |
| 20260507040520 | 56 | 244 | 0.0 | 1.0 | 0.04 | 0.23 | 0.01 | 79 | 1004.2 |
| 20260507040247 | 56 | 244 | 1.0 | 3.0 | 0.03 | 0.22 | 0.00 | 80 | 1004.1 |
| 20260507035516 | 57 | 244 | 1.0 | 3.0 | 0.01 | 0.20 | 0.21 | 80 | 1004.1 |
| 20260507035235 | 57 | 334 | 1.0 | 3.0 | 0.00 | 0.19 | 0.19 | 80 | 1004.2 |
| 20260507034505 | 57 | 221 | 0.0 | 2.0 | 0.00 | 0.19 | 0.19 | 80 | 1004.2 |
| 20260507033958 | 57 | 220 | 0.0 | 2.0 | 0.00 | 0.19 | 0.19 | 80 | 1004.0 |
| 20260507033452 | 57 | 220 | 0.0 | 0.0 | 0.00 | 0.19 | 0.19 | 81 | 1003.7 |
| 20260507032947 | 57 | 155 | 0.0 | 0.0 | 0.00 | 0.19 | 0.19 | 81 | 1003.5 |
| 20260507032440 | 56 | 155 | 0.0 | 0.0 | 0.00 | 0.19 | 0.19 | 80 | 1003.5 |
| 20260507031934 | 56 | 155 | 0.0 | 0.0 | 0.00 | 0.19 | 0.19 | 80 | 1003.4 |
| 20260507031646 | 56 | 155 | 0.0 | 0.0 | 0.00 | 0.19 | 0.19 | 80 | 1003.4 |
| 20260507030922 | 56 | 155 | 0.0 | 0.0 | 0.00 | 0.19 | 0.19 | 80 | 1003.4 |
| 20260507030416 | 56 | 155 | 0.0 | 0.0 | 0.00 | 0.19 | 0.19 | 80 | 1003.4 |
| 20260507025917 | 56 | 155 | 0.0 | 0.0 | 0.00 | 0.19 | 0.19 | 80 | 1003.5 |
| 20260507025418 | 56 | 155 | 0.0 | 0.0 | 0.00 | 0.19 | 0.19 | 80 | 1003.3 |
| 20260507024915 | 56 | 155 | 0.0 | 0.0 | 0.00 | 0.19 | 0.19 | 80 | 1003.5 |
| 20260507024633 | 56 | 155 | 0.0 | 0.0 | 0.00 | 0.19 | 0.19 | 80 | 1003.4 |
| 20260507023914 | 56 | 155 | 0.0 | 0.0 | 0.00 | 0.19 | 0.19 | 80 | 1003.5 |
| 20260507023413 | 56 | 155 | 0.0 | 0.0 | 0.00 | 0.19 | 0.19 | 80 | 1003.5 |
| 20260507023132 | 56 | 155 | 0.0 | 0.0 | 0.00 | 0.19 | 0.19 | 80 | 1003.7 |
| 20260507022412 | 56 | 155 | 0.0 | 0.0 | 0.00 | 0.19 | 0.19 | 80 | 1003.7 |
| 20260507021910 | 56 | 155 | 0.0 | 0.0 | 0.00 | 0.19 | 0.19 | 80 | 1003.8 |
| 20260507021410 | 56 | 155 | 0.0 | 0.0 | 0.00 | 0.19 | 0.19 | 80 | 1003.8 |
| 20260507020908 | 56 | 155 | 0.0 | 0.0 | 0.00 | 0.19 | 0.19 | 80 | 1003.6 |
| 20260507020406 | 56 | 155 | 0.0 | 0.0 | 0.00 | 0.19 | 0.19 | 80 | 1003.7 |
| 20260507020126 | 56 | 155 | 0.0 | 0.0 | 0.00 | 0.19 | 0.19 | 80 | 1003.6 |
| 20260507015404 | 56 | 155 | 0.0 | 0.0 | 0.00 | 0.19 | 0.19 | 80 | 1003.8 |
| 20260507014900 | 56 | 155 | 0.0 | 0.0 | 0.00 | 0.19 | 0.19 | 80 | 1003.8 |
| 20260507014402 | 56 | 155 | 0.0 | 0.0 | 0.00 | 0.19 | 0.19 | 80 | 1003.8 |
| 20260507013858 | 56 | 155 | 0.0 | 2.0 | 0.00 | 0.19 | 0.19 | 80 | 1003.8 |
| 20260507013618 | 56 | 155 | 0.0 | 2.0 | 0.00 | 0.19 | 0.19 | 80 | 1003.8 |
| 20260507012856 | 56 | 155 | 0.0 | 0.0 | 0.00 | 0.19 | 0.19 | 80 | 1003.9 |
| 20260507012357 | 56 | 155 | 0.0 | 1.0 | 0.00 | 0.19 | 0.19 | 80 | 1004.0 |
| 20260507012120 | 56 | 155 | 0.0 | 2.0 | 0.00 | 0.19 | 0.19 | 80 | 1004.0 |
| 20260507011358 | 56 | 155 | 1.0 | 2.0 | 0.00 | 0.19 | 0.19 | 80 | 1004.0 |
| 20260507011117 | 56 | 155 | 1.0 | 2.0 | 0.00 | 0.19 | 0.19 | 79 | 1003.9 |
| 20260507010356 | 56 | 155 | 0.0 | 2.0 | 0.00 | 0.19 | 0.19 | 79 | 1004.1 |
| 20260507005859 | 56 | 155 | 0.0 | 2.0 | 0.00 | 0.19 | 0.19 | 79 | 1004.1 |
| 20260507005354 | 56 | 155 | 1.0 | 2.0 | 0.00 | 0.19 | 0.19 | 79 | 1004.2 |
| 20260507004853 | 56 | 155 | 1.0 | 3.0 | 0.00 | 0.19 | 0.19 | 79 | 1004.1 |
| 20260507004354 | 56 | 155 | 1.0 | 3.0 | 0.00 | 0.19 | 0.19 | 79 | 1004.1 |
| 20260507003854 | 56 | 155 | 1.0 | 3.0 | 0.00 | 0.19 | 0.19 | 79 | 1004.1 |
| 20260507003356 | 56 | 155 | 1.0 | 2.0 | 0.00 | 0.19 | 0.19 | 79 | 1004.1 |
| 20260507003118 | 56 | 155 | 1.0 | 2.0 | 0.00 | 0.19 | 0.19 | 79 | 1004.0 |
| 20260507002354 | 56 | 155 | 1.0 | 2.0 | 0.00 | 0.19 | 0.19 | 79 | 1004.0 |
| 20260507001852 | 56 | 155 | 1.0 | 2.0 | 0.00 | 0.19 | 0.19 | 79 | 1004.0 |
| 20260507001354 | 56 | 155 | 1.0 | 4.0 | 0.00 | 0.19 | 0.19 | 79 | 1004.0 |
| 20260507000848 | 57 | 155 | 1.0 | 4.0 | 0.00 | 0.19 | 0.19 | 79 | 1004.0 |
| 20260507000350 | 57 | 146 | 1.0 | 3.0 | 0.00 | 0.19 | 0.19 | 79 | 1004.0 |
| 20260506235848 | 57 | 146 | 1.0 | 4.0 | 0.00 | 0.19 | 0.19 | 79 | 1003.9 |
| 20260506235349 | 57 | 172 | 1.0 | 4.0 | 0.00 | 0.19 | 0.19 | 79 | 1004.0 |
| 20260506234849 | 57 | 159 | 0.0 | 2.0 | 0.00 | 0.19 | 0.19 | 79 | 1003.9 |
| 20260506234611 | 57 | 159 | 0.0 | 0.0 | 0.00 | 0.19 | 0.19 | 79 | 1004.0 |
| 20260506233846 | 57 | 159 | 0.0 | 0.0 | 0.00 | 0.19 | 0.19 | 79 | 1003.8 |
| 20260506233343 | 57 | 159 | 0.0 | 0.0 | 0.00 | 0.19 | 0.19 | 79 | 1003.8 |
| 20260506232842 | 57 | 159 | 0.0 | 0.0 | 0.00 | 0.19 | 0.19 | 79 | 1003.8 |
| 20260506232338 | 57 | 159 | 0.0 | 0.0 | 0.00 | 0.19 | 0.19 | 79 | 1003.9 |
| 20260506232057 | 57 | 142 | 0.0 | 0.0 | 0.00 | 0.19 | 0.19 | 79 | 1003.9 |
| 20260506231553 | 57 | 103 | 0.0 | 0.0 | 0.00 | 0.19 | 0.19 | 79 | 1004.0 |
| 20260506230836 | 58 | 165 | 0.0 | 0.0 | 0.00 | 0.19 | 0.19 | 79 | 1004.0 |
| 20260506230336 | 58 | 165 | 0.0 | 0.0 | 0.00 | 0.19 | 0.19 | 79 | 1003.8 |
| 20260506230055 | 58 | 165 | 0.0 | 0.0 | 0.00 | 0.19 | 0.19 | 79 | 1003.9 |
| 20260506225333 | 58 | 165 | 0.0 | 0.0 | 0.00 | 0.19 | 0.19 | 79 | 1004.1 |
| 20260506224828 | 58 | 165 | 0.0 | 0.0 | 0.01 | 0.19 | 0.19 | 79 | 1004.1 |
| 20260506224321 | 58 | 165 | 0.0 | 0.0 | 0.01 | 0.19 | 0.19 | 79 | 1004.2 |
| 20260506223815 | 58 | 132 | 0.0 | 0.0 | 0.01 | 0.19 | 0.19 | 79 | 1004.2 |
| 20260506223309 | 58 | 158 | 0.0 | 0.0 | 0.01 | 0.19 | 0.19 | 78 | 1004.3 |
| 20260506222803 | 58 | 160 | 0.0 | 0.0 | 0.01 | 0.19 | 0.19 | 78 | 1004.2 |
| 20260506222257 | 58 | 144 | 0.0 | 0.0 | 0.01 | 0.19 | 0.19 | 78 | 1004.2 |
| 20260506222234 | 58 | 144 | 0.0 | 0.0 | 0.01 | 0.19 | 0.19 | 79 | 1004.2 |
| 20260506221245 | 58 | 157 | 0.0 | 0.0 | 0.01 | 0.19 | 0.19 | 79 | 1004.4 |
| 20260506221007 | 58 | 140 | 0.0 | 0.0 | 0.01 | 0.19 | 0.19 | 78 | 1004.4 |
| 20260506220233 | 58 | 88 | 0.0 | 0.0 | 0.02 | 0.19 | 0.19 | 78 | 1004.4 |
| 20260506215726 | 58 | 151 | 0.0 | 0.0 | 0.02 | 0.19 | 0.19 | 78 | 1004.5 |
| 20260506215221 | 58 | 129 | 0.0 | 0.0 | 0.01 | 0.18 | 0.18 | 79 | 1004.5 |
| 20260506214715 | 59 | 128 | 0.0 | 0.0 | 0.02 | 0.18 | 0.18 | 79 | 1004.5 |
| 20260506214209 | 59 | 128 | 0.0 | 0.0 | 0.02 | 0.18 | 0.18 | 78 | 1004.5 |
| 20260506213703 | 59 | 192 | 0.0 | 0.0 | 0.02 | 0.18 | 0.18 | 79 | 1004.6 |
| 20260506213157 | 59 | 164 | 0.0 | 0.0 | 0.03 | 0.18 | 0.18 | 79 | 1004.6 |
| 20260506212651 | 59 | 164 | 0.0 | 0.0 | 0.03 | 0.18 | 0.18 | 79 | 1004.7 |
| 20260506212145 | 59 | 164 | 0.0 | 0.0 | 0.04 | 0.18 | 0.18 | 78 | 1004.8 |
| 20260506211638 | 59 | 163 | 0.0 | 0.0 | 0.04 | 0.18 | 0.18 | 78 | 1004.8 |
| 20260506211133 | 59 | 163 | 0.0 | 0.0 | 0.04 | 0.18 | 0.18 | 78 | 1004.8 |
| 20260506210627 | 59 | 158 | 0.0 | 0.0 | 0.05 | 0.18 | 0.18 | 78 | 1004.8 |
| 20260506210120 | 59 | 122 | 0.0 | 0.0 | 0.04 | 0.17 | 0.17 | 78 | 1004.9 |
| 20260506205615 | 59 | 121 | 0.0 | 0.0 | 0.04 | 0.17 | 0.17 | 78 | 1004.8 |
| 20260506205333 | 59 | 121 | 0.0 | 0.0 | 0.04 | 0.17 | 0.17 | 78 | 1004.9 |
| 20260506204603 | 59 | 119 | 0.0 | 0.0 | 0.04 | 0.16 | 0.16 | 78 | 1004.8 |
| 20260506204057 | 59 | 117 | 0.0 | 0.0 | 0.04 | 0.16 | 0.16 | 78 | 1004.8 |
| 20260506203551 | 59 | 252 | 0.0 | 0.0 | 0.03 | 0.15 | 0.16 | 78 | 1004.9 |
| 20260506203045 | 59 | 102 | 0.0 | 0.0 | 0.04 | 0.15 | 0.15 | 77 | 1005.0 |
| 20260506202539 | 59 | 102 | 0.0 | 0.0 | 0.04 | 0.15 | 0.15 | 77 | 1005.1 |
| 20260506202033 | 59 | 153 | 0.0 | 0.0 | 0.04 | 0.14 | 0.14 | 77 | 1005.1 |
| 20260506201527 | 59 | 153 | 0.0 | 0.0 | 0.05 | 0.14 | 0.14 | 77 | 1005.2 |
| 20260506201021 | 59 | 153 | 0.0 | 0.0 | 0.05 | 0.14 | 0.14 | 77 | 1005.2 |
| 20260506200515 | 59 | 153 | 0.0 | 0.0 | 0.05 | 0.13 | 0.13 | 77 | 1005.2 |
| 20260506200009 | 59 | 153 | 0.0 | 0.0 | 0.05 | 0.13 | 0.13 | 76 | 1005.2 |
| 20260506195504 | 59 | 153 | 0.0 | 0.0 | 0.06 | 0.13 | 0.13 | 75 | 1005.3 |
| 20260506194957 | 59 | 153 | 0.0 | 0.0 | 0.06 | 0.12 | 0.13 | 74 | 1005.2 |
| 20260506194710 | 59 | 153 | 0.0 | 0.0 | 0.07 | 0.12 | 0.12 | 73 | 1005.5 |
| 20260506193945 | 59 | 153 | 0.0 | 0.0 | 0.08 | 0.12 | 0.12 | 73 | 1005.5 |
| 20260506193439 | 59 | 153 | 0.0 | 0.0 | 0.09 | 0.12 | 0.12 | 72 | 1005.5 |
| 20260506193155 | 59 | 153 | 0.0 | 0.0 | 0.08 | 0.11 | 0.11 | 71 | 1005.7 |
| 20260506192427 | 59 | 153 | 0.0 | 0.0 | 0.09 | 0.10 | 0.11 | 71 | 1005.6 |
| 20260506191921 | 59 | 153 | 0.0 | 0.0 | 0.09 | 0.10 | 0.10 | 70 | 1005.5 |
| 20260506191415 | 59 | 153 | 0.0 | 0.0 | 0.09 | 0.09 | 0.09 | 69 | 1005.5 |
| 20260506190909 | 59 | 153 | 0.0 | 0.0 | 0.09 | 0.09 | 0.09 | 68 | 1005.6 |
| 20260506190403 | 60 | 153 | 0.0 | 0.0 | 0.08 | 0.08 | 0.08 | 67 | 1005.7 |
| 20260506185857 | 60 | 153 | 0.0 | 0.0 | 0.08 | 0.08 | 0.08 | 67 | 1005.9 |
| 20260506185616 | 60 | 159 | 0.0 | 0.0 | 0.07 | 0.07 | 0.07 | 67 | 1006.1 |
| 20260506185331 | 60 | 161 | 0.0 | 0.0 | 0.06 | 0.06 | 0.06 | 66 | 1005.7 |
| 20260506184339 | 61 | 221 | 0.0 | 0.0 | 0.05 | 0.05 | 0.05 | 66 | 1006.3 |
| 20260506183833 | 61 | 221 | 0.0 | 0.0 | 0.04 | 0.04 | 0.04 | 66 | 1005.7 |
| 20260506183327 | 61 | 220 | 0.0 | 0.0 | 0.03 | 0.03 | 0.03 | 66 | 1005.8 |
| 20260506182821 | 62 | 223 | 0.0 | 0.0 | 0.02 | 0.02 | 0.03 | 66 | 1005.8 |
| 20260506182315 | 62 | 214 | 0.0 | 0.0 | 0.01 | 0.01 | 0.01 | 66 | 1005.7 |
| 20260506181809 | 63 | 213 | 0.0 | 0.0 | 0.00 | 0.00 | 0.00 | 65 | 1005.6 |
| 20260506181303 | 64 | 213 | 0.0 | 1.0 | 0.00 | 0.00 | 0.00 | 64 | 1005.4 |
| 20260506180757 | 64 | 163 | 1.0 | 4.0 | 0.00 | 0.00 | 0.00 | 63 | 1005.4 |
| 20260506180252 | 64 | 159 | 1.0 | 4.0 | 0.00 | 0.00 | 0.00 | 63 | 1005.3 |
| 20260506180011 | 65 | 78 | 1.0 | 4.0 | 0.00 | 0.00 | 0.00 | 63 | 1005.3 |
| 20260506175240 | 65 | 77 | 1.0 | 4.0 | 0.00 | 0.00 | 0.00 | 63 | 1005.4 |
| 20260506174733 | 65 | 165 | 1.0 | 4.0 | 0.00 | 0.00 | 0.00 | 61 | 1005.4 |
| 20260506174227 | 65 | 65 | 1.0 | 3.0 | 0.00 | 0.00 | 0.00 | 62 | 1005.4 |
| 20260506173937 | 65 | 65 | 2.0 | 4.0 | 0.00 | 0.00 | 0.00 | 60 | 1005.4 |
| 20260506173215 | 65 | 65 | 2.0 | 4.0 | 0.00 | 0.00 | 0.00 | 58 | 1005.5 |
| 20260506172930 | 65 | 153 | 2.0 | 6.0 | 0.00 | 0.00 | 0.00 | 57 | 1005.6 |
| 20260506172209 | 65 | 92 | 2.0 | 6.0 | 0.00 | 0.00 | 0.00 | 57 | 1005.6 |
| 20260506171709 | 65 | 90 | 2.0 | 4.0 | 0.00 | 0.00 | 0.00 | 58 | 1005.7 |
| 20260506171209 | 65 | 90 | 2.0 | 4.0 | 0.00 | 0.00 | 0.00 | 58 | 1005.8 |
| 20260506170935 | 65 | 88 | 2.0 | 4.0 | 0.00 | 0.00 | 0.00 | 58 | 1005.9 |
| 20260506170205 | 65 | 80 | 1.0 | 6.0 | 0.00 | 0.00 | 0.00 | 58 | 1006.1 |
| 20260506165705 | 65 | 153 | 1.0 | 6.0 | 0.00 | 0.00 | 0.00 | 58 | 1006.3 |
| 20260506165658 | 65 | 94 | 0.0 | 3.0 | 0.00 | 0.00 | 0.00 | 57 | 1006.4 |
| 20260506164701 | 65 | 86 | 1.0 | 3.0 | 0.00 | 0.00 | 0.00 | 57 | 1006.4 |
| 20260506164204 | 65 | 95 | 2.0 | 3.0 | 0.00 | 0.00 | 0.00 | 57 | 1006.5 |
| 20260506163702 | 65 | 81 | 2.0 | 3.0 | 0.00 | 0.00 | 0.00 | 57 | 1006.5 |
| 20260506163202 | 65 | 82 | 2.0 | 3.0 | 0.00 | 0.00 | 0.00 | 57 | 1006.7 |
| 20260506162702 | 65 | 77 | 1.0 | 4.0 | 0.00 | 0.00 | 0.00 | 57 | 1006.8 |
| 20260506162425 | 65 | 91 | 1.0 | 4.0 | 0.00 | 0.00 | 0.00 | 57 | 1007.0 |
| 20260506161701 | 65 | 168 | 1.0 | 3.0 | 0.00 | 0.00 | 0.00 | 58 | 1007.1 |
| 20260506161200 | 65 | 120 | 1.0 | 3.0 | 0.00 | 0.00 | 0.00 | 58 | 1007.3 |
| 20260506160701 | 65 | 115 | 1.0 | 3.0 | 0.00 | 0.00 | 0.00 | 58 | 1007.3 |
| 20260506160159 | 65 | 115 | 0.0 | 3.0 | 0.00 | 0.00 | 0.00 | 59 | 1007.4 |
| 20260506155659 | 64 | 115 | 0.0 | 2.0 | 0.00 | 0.00 | 0.00 | 59 | 1007.5 |
| 20260506155153 | 64 | 94 | 0.0 | 0.0 | 0.00 | 0.00 | 0.00 | 59 | 1007.5 |
| 20260506154652 | 64 | 134 | 0.0 | 0.0 | 0.00 | 0.00 | 0.00 | 59 | 1007.7 |
| 20260506154149 | 64 | 153 | 0.0 | 0.0 | 0.00 | 0.00 | 0.00 | 59 | 1007.7 |
| 20260506153650 | 64 | 153 | 0.0 | 0.0 | 0.00 | 0.00 | 0.00 | 58 | 1007.7 |
| 20260506153413 | 64 | 171 | 0.0 | 0.0 | 0.00 | 0.00 | 0.00 | 58 | 1007.7 |
| 20260506152651 | 65 | 96 | 0.0 | 0.0 | 0.00 | 0.00 | 0.00 | 57 | 1007.7 |
| 20260506152150 | 65 | 117 | 0.0 | 0.0 | 0.00 | 0.00 | 0.00 | 56 | 1007.7 |
| 20260506151649 | 66 | 88 | 0.0 | 0.0 | 0.00 | 0.00 | 0.00 | 55 | 1007.7 |
| 20260506151150 | 67 | 57 | 0.0 | 0.0 | 0.00 | 0.00 | 0.00 | 55 | 1007.8 |
| 20260506150651 | 67 | 213 | 0.0 | 0.0 | 0.00 | 0.00 | 0.00 | 56 | 1007.7 |
| 20260506150147 | 67 | 174 | 0.0 | 0.0 | 0.00 | 0.00 | 0.00 | 56 | 1007.6 |
| 20260506145646 | 67 | 194 | 0.0 | 0.0 | 0.00 | 0.00 | 0.00 | 56 | 1007.7 |
| 20260506145146 | 67 | 246 | 0.0 | 0.0 | 0.00 | 0.00 | 0.00 | 56 | 1007.5 |
| 20260506144908 | 67 | 229 | 0.0 | 0.0 | 0.00 | 0.00 | 0.00 | 56 | 1007.5 |
| 20260506144147 | 66 | 242 | 0.0 | 0.0 | 0.00 | 0.00 | 0.00 | 56 | 1007.5 |
| 20260506143645 | 66 | 169 | 0.0 | 0.0 | 0.00 | 0.00 | 0.00 | 57 | 1007.4 |
| 20260506143146 | 66 | 160 | 0.0 | 0.0 | 0.00 | 0.00 | 0.00 | 57 | 1007.3 |
| 20260506142646 | 66 | 160 | 0.0 | 0.0 | 0.00 | 0.00 | 0.00 | 57 | 1007.2 |
| 20260506142148 | 66 | 160 | 0.0 | 0.0 | 0.00 | 0.00 | 0.00 | 57 | 1007.3 |
| 20260506141643 | 66 | 160 | 0.0 | 0.0 | 0.00 | 0.00 | 0.00 | 57 | 1007.4 |
| 20260506141407 | 65 | 227 | 0.0 | 0.0 | 0.00 | 0.00 | 0.00 | 57 | 1007.5 |
| 20260506140641 | 65 | 227 | 0.0 | 0.0 | 0.00 | 0.00 | 0.00 | 58 | 1007.6 |
| 20260506140143 | 65 | 272 | 0.0 | 0.0 | 0.00 | 0.00 | 0.00 | 58 | 1007.7 |
| 20260506135643 | 65 | 214 | 0.0 | 0.0 | 0.00 | 0.00 | 0.00 | 58 | 1007.9 |
| 20260506135142 | 64 | 229 | 0.0 | 0.0 | 0.00 | 0.00 | 0.00 | 58 | 1007.9 |
| 20260506134642 | 64 | 234 | 0.0 | 0.0 | 0.00 | 0.00 | 0.00 | 59 | 1008.0 |
| 20260506134142 | 64 | 307 | 0.0 | 0.0 | 0.00 | 0.00 | 0.00 | 59 | 1008.1 |
| 20260506133643 | 63 | 232 | 0.0 | 0.0 | 0.00 | 0.00 | 0.00 | 60 | 1007.9 |
| 20260506133136 | 62 | 232 | 0.0 | 0.0 | 0.00 | 0.00 | 0.00 | 60 | 1008.0 |
| 20260506132630 | 62 | 80 | 0.0 | 0.0 | 0.00 | 0.00 | 0.00 | 62 | 1008.0 |
| 20260506132124 | 61 | 78 | 0.0 | 0.0 | 0.00 | 0.00 | 0.00 | 61 | 1008.1 |
| 20260506131618 | 61 | 78 | 0.0 | 0.0 | 0.00 | 0.00 | 0.00 | 61 | 1008.1 |
| 20260506131112 | 61 | 78 | 0.0 | 0.0 | 0.00 | 0.00 | 0.00 | 61 | 1007.9 |
| 20260506130606 | 60 | 78 | 0.0 | 0.0 | 0.00 | 0.00 | 0.00 | 61 | 1007.9 |
| 20260506130100 | 60 | 78 | 0.0 | 0.0 | 0.00 | 0.00 | 0.00 | 61 | 1007.9 |
| 20260506125554 | 60 | 78 | 0.0 | 0.0 | 0.00 | 0.00 | 0.00 | 61 | 1008.0 |
| 20260506125049 | 60 | 78 | 0.0 | 0.0 | 0.00 | 0.00 | 0.00 | 60 | 1008.0 |
| 20260506124542 | 60 | 78 | 0.0 | 0.0 | 0.00 | 0.00 | 0.00 | 60 | 1008.1 |
| 20260506124036 | 60 | 78 | 0.0 | 0.0 | 0.00 | 0.00 | 0.00 | 60 | 1008.1 |
| 20260506123530 | 59 | 108 | 0.0 | 0.0 | 0.00 | 0.00 | 0.00 | 61 | 1008.0 |
| 20260506123024 | 59 | 108 | 0.0 | 0.0 | 0.00 | 0.00 | 0.00 | 61 | 1008.2 |
| 20260506122518 | 59 | 108 | 0.0 | 0.0 | 0.00 | 0.00 | 0.00 | 61 | 1008.2 |
| 20260506122012 | 59 | 108 | 0.0 | 0.0 | 0.00 | 0.00 | 0.00 | 60 | 1008.2 |
| 20260506121506 | 59 | 108 | 0.0 | 0.0 | 0.00 | 0.00 | 0.00 | 61 | 1008.2 |
| 20260506121000 | 58 | 238 | 0.0 | 0.0 | 0.00 | 0.00 | 0.00 | 63 | 1008.2 |
| 20260506120454 | 58 | 238 | 0.0 | 0.0 | 0.00 | 0.00 | 0.00 | 62 | 1008.4 |
| 20260506115948 | 58 | 238 | 0.0 | 0.0 | 0.00 | 0.00 | 0.00 | 61 | 1008.3 |
| 20260506115442 | 58 | 238 | 0.0 | 0.0 | 0.00 | 0.00 | 0.00 | 62 | 1008.3 |
| 20260506114936 | 58 | 238 | 0.0 | 0.0 | 0.00 | 0.00 | 0.00 | 64 | 1008.2 |